M I D A S
Marine Information and Data Acquisition System
Tripno 2040 of the Zeeleeuw from 2011-02-14 07:40:22 to 2011-02-14 15:44:08
Back to CruiseResearch ActivitiesStationsMapUnderway DataData graphs

EquipmentUnitsComments
TimeDGPSUTC
LatitudeDGPSDM.mWGS84
LongitudeDGPSDM.mWGS84
SpeedMeteo Stationm/sRelative wind speed
DirectionMeteo StationdegRelative wind direction
TemperatureMeteo Stationdeg CelciusAir temperature
PressureMeteo StationPaAtmospheric pressure
HumidityMeteo Station%Relative humidity
Missing or incorrect values are displayed as -999
Metereological data collected by the RV Zeeleeuw from 2011-02-14 07:12:17 to 2011-02-14 15:47:59
Time Latitude Longitude Speed Direction Temperature Pressure Humidity
2011-02-14 07:13 51°13.665 2°55.959 -999 14 6.6 100280 52
2011-02-14 07:14 51°13.662 2°55.958 2.6 14 6.6 -999 39
2011-02-14 07:15 51°13.662 2°55.957 -999 15 6.5 100280 52
2011-02-14 07:16 51°13.662 2°55.957 -999 14 6.5 100280 52
2011-02-14 07:17 51°13.663 2°55.958 0.5 11 6.5 100290 52
2011-02-14 07:18 51°13.663 2°55.957 -999 18 6.5 100290 52
2011-02-14 07:19 51°13.663 2°55.957 -999 28 6.5 100290 52
2011-02-14 07:20 51°13.662 2°55.957 -999 5 6.5 100290 52
2011-02-14 07:21 51°13.663 2°55.959 -999 8 6.5 100300 52
2011-02-14 07:22 51°13.664 2°55.959 -999 12 6.5 100300 52
2011-02-14 07:23 51°13.662 2°55.958 0.1 13 6.5 100300 52
2011-02-14 07:24 51°13.662 2°55.959 -999 7 6.5 100300 52
2011-02-14 07:25 51°13.667 2°55.962 -999 1 6.5 100300 52
2011-02-14 07:26 51°13.663 2°55.958 0.1 7 6.5 100300 52
2011-02-14 07:27 51°13.662 2°55.959 -999 13 6.5 100300 52
2011-02-14 07:28 51°13.662 2°55.96 0.1 14 6.5 100310 52
2011-02-14 07:29 51°13.663 2°55.96 -999 8 6.5 100310 52
2011-02-14 07:30 51°13.663 2°55.96 0.5 359 6.5 100310 51
2011-02-14 07:31 51°13.663 2°55.961 -999 5 6.5 100310 52
2011-02-14 07:32 51°13.664 2°55.961 -999 22 6.5 100310 52
2011-02-14 07:33 51°13.663 2°55.961 -999 359 6.5 100310 52
2011-02-14 07:34 51°13.663 2°55.961 1.7 4 6.5 100310 52
2011-02-14 07:35 51°13.663 2°55.961 0.1 16 6.5 100310 52
2011-02-14 07:36 51°13.662 2°55.961 0.5 15 6.5 100310 53
2011-02-14 07:37 51°13.666 2°55.938 -999 35 6.5 100320 52
2011-02-14 07:38 51°13.684 2°55.837 2.3 34 6.5 100320 53
2011-02-14 07:39 51°13.69 2°55.747 0.1 40 6.5 100310 52
2011-02-14 07:40 51°13.696 2°55.74 -999 23 6.5 100320 52
2011-02-14 07:41 51°13.729 2°55.736 0.1 260 6.5 100320 52
2011-02-14 07:42 51°13.801 2°55.657 -999 24 6.5 100320 52
2011-02-14 07:43 51°13.903 2°55.573 -999 318 6.6 100320 52
2011-02-14 07:44 51°14.021 2°55.492 0.1 23 6.6 100320 52
2011-02-14 07:45 51°14.159 2°55.394 2.1 320 6.6 100320 52
2011-02-14 07:46 51°14.305 2°55.267 2.9 25 6.7 100320 51
2011-02-14 07:47 51°14.452 2°55.118 3.9 24 6.7 100320 52
2011-02-14 07:48 51°14.609 2°54.973 5.1 19 6.7 100320 53
2011-02-14 07:49 51°14.771 2°54.823 4.5 26 6.7 100320 52
2011-02-14 07:50 51°14.938 2°54.642 4.6 25 6.7 100310 51
2011-02-14 07:51 51°15.116 2°54.441 3.7 27 6.7 100320 53
2011-02-14 07:52 51°15.292 2°54.234 4.9 27 6.7 100310 52
2011-02-14 07:53 51°15.465 2°54.011 4.8 26 6.7 100310 52
2011-02-14 07:54 51°15.628 2°53.783 6.6 21 6.7 100310 53
2011-02-14 07:55 51°15.792 2°53.558 5 21 6.7 100310 51
2011-02-14 07:56 51°15.985 2°53.402 0.2 21 6.6 100320 51
2011-02-14 07:57 51°16.189 2°53.247 3.9 21 6.6 100320 53
2011-02-14 07:58 51°16.389 2°53.097 3.6 22 6.6 100320 53
2011-02-14 07:59 51°16.595 2°52.973 3.5 20 6.6 100320 53
2011-02-14 08:00 51°16.804 2°52.836 3.2 23 6.6 100320 51
2011-02-14 08:01 51°17.011 2°52.703 3.9 22 6.6 100320 51
2011-02-14 08:02 51°17.23 2°52.655 0.6 22 6.6 100330 52
2011-02-14 08:03 51°17.464 2°52.641 0.2 20 6.6 100320 52
2011-02-14 08:04 51°17.694 2°52.629 0.3 27 6.6 100330 52
2011-02-14 08:05 51°17.92 2°52.61 -999 23 6.6 100330 52
2011-02-14 08:06 51°18.153 2°52.587 0.1 23 6.7 100330 52
2011-02-14 08:07 51°18.383 2°52.567 0.1 26 6.7 100330 52
2011-02-14 08:08 51°18.609 2°52.546 0.3 20 6.7 100330 53
2011-02-14 08:09 51°18.842 2°52.525 1.2 21 6.7 100330 52
2011-02-14 08:10 51°19.068 2°52.506 1 21 6.7 100320 52
2011-02-14 08:11 51°19.297 2°52.489 0.1 28 6.7 100330 53
2011-02-14 08:12 51°19.527 2°52.451 3.3 20 6.7 100320 51
2011-02-14 08:13 51°19.746 2°52.356 3.4 20 6.7 100320 52
2011-02-14 08:14 51°19.96 2°52.243 3.8 24 6.8 100320 53
2011-02-14 08:15 51°20.173 2°52.128 4.9 22 6.7 100310 53
2011-02-14 08:16 51°20.359 2°52.036 4.3 251 6.8 100320 52
2011-02-14 08:17 51°20.529 2°51.957 4.9 255 6.8 100320 51
2011-02-14 08:18 51°20.673 2°51.875 4.6 255 6.7 100320 53
2011-02-14 08:19 51°20.802 2°51.803 4 253 6.8 100310 53
2011-02-14 08:20 51°20.93 2°51.721 5.5 18 6.8 100320 52
2011-02-14 08:21 51°21.058 2°51.611 5.9 243 6.8 100320 52
2011-02-14 08:22 51°21.233 2°51.441 5.9 25 6.7 100310 53
2011-02-14 08:23 51°21.434 2°51.295 3.9 24 6.7 100310 52
2011-02-14 08:24 51°21.655 2°51.247 1 26 6.7 100320 53
2011-02-14 08:25 51°21.882 2°51.28 1.1 23 6.7 100320 52
2011-02-14 08:26 51°22.106 2°51.319 0.1 248 6.8 100330 52
2011-02-14 08:27 51°22.336 2°51.369 0.9 243 6.8 100330 52
2011-02-14 08:28 51°22.564 2°51.414 1 248 6.8 100330 53
2011-02-14 08:29 51°22.789 2°51.458 1.1 250 6.8 100330 53
2011-02-14 08:30 51°23.021 2°51.498 -999 249 6.8 100320 52
2011-02-14 08:31 51°23.249 2°51.533 -999 254 6.8 100330 52
2011-02-14 08:32 51°23.477 2°51.57 -999 23 6.8 100330 52
2011-02-14 08:33 51°23.706 2°51.602 0.1 18 6.8 100330 52
2011-02-14 08:34 51°23.934 2°51.633 2.2 244 6.8 100330 52
2011-02-14 08:35 51°24.162 2°51.677 0.1 247 6.8 100330 52
2011-02-14 08:36 51°24.388 2°51.751 0.1 18 6.8 100340 53
2011-02-14 08:37 51°24.612 2°51.821 0.2 21 6.9 100330 52
2011-02-14 08:38 51°24.844 2°51.895 0.1 23 6.9 100330 52
2011-02-14 08:39 51°25.071 2°51.968 0.1 24 6.9 100330 52
2011-02-14 08:40 51°25.295 2°52.038 -999 23 6.9 100340 52
2011-02-14 08:41 51°25.526 2°52.114 0.7 22 6.9 100330 52
2011-02-14 08:42 51°25.749 2°52.185 1 20 6.9 100330 51
2011-02-14 08:43 51°25.976 2°52.257 0.2 21 6.9 100330 52
2011-02-14 08:44 51°26.207 2°52.329 0.1 19 6.9 100330 52
2011-02-14 08:45 51°26.435 2°52.405 0.4 25 6.9 100330 52
2011-02-14 08:46 51°26.659 2°52.467 3.1 28 6.9 100330 52
2011-02-14 08:47 51°26.89 2°52.473 3.5 24 6.9 100330 51
2011-02-14 08:48 51°27.118 2°52.482 4 28 6.9 100330 53
2011-02-14 08:49 51°27.345 2°52.525 0.8 22 6.9 100330 52
2011-02-14 08:50 51°27.565 2°52.637 0.2 22 6.9 100330 52
2011-02-14 08:51 51°27.787 2°52.745 0.1 24 6.9 100330 53
2011-02-14 08:52 51°28.009 2°52.859 0.1 18 6.9 100330 52
2011-02-14 08:53 51°28.231 2°52.966 0.6 22 6.9 100330 51
2011-02-14 08:54 51°28.453 2°53.075 0.4 23 6.9 100330 51
2011-02-14 08:55 51°28.673 2°53.182 0.6 19 6.9 100330 52
2011-02-14 08:56 51°28.896 2°53.295 0.1 23 6.9 100340 50
2011-02-14 08:57 51°29.119 2°53.408 0.1 27 6.9 100330 52
2011-02-14 08:58 51°29.342 2°53.522 0.6 22 6.9 100340 53
2011-02-14 08:59 51°29.568 2°53.642 0.2 23 6.9 100340 52
2011-02-14 09:00 51°29.781 2°53.786 0.1 21 6.9 100340 52
2011-02-14 09:01 51°29.998 2°53.932 0.1 21 6.9 100340 52
2011-02-14 09:02 51°30.215 2°54.083 0.1 20 6.9 100340 52
2011-02-14 09:03 51°30.431 2°54.23 0.1 22 6.9 100340 52
2011-02-14 09:04 51°30.645 2°54.377 -999 23 6.9 100340 52
2011-02-14 09:05 51°30.86 2°54.517 0.1 25 6.9 100340 52
2011-02-14 09:06 51°31.08 2°54.66 -999 23 7 100340 52
2011-02-14 09:07 51°31.295 2°54.794 -999 23 7 100340 52
2011-02-14 09:08 51°31.516 2°54.937 0.4 23 7 100340 52
2011-02-14 09:09 51°31.731 2°55.068 0.1 23 7 100340 52
2011-02-14 09:10 51°31.948 2°55.207 -999 23 7 100340 52
2011-02-14 09:11 51°32.105 2°55.305 -999 25 7 100340 52
2011-02-14 09:12 51°32.241 2°55.4 -999 23 7 100340 52
2011-02-14 09:13 51°32.374 2°55.464 3.2 259 7 100340 52
2011-02-14 09:14 51°32.504 2°55.505 0.1 22 7 100350 52
2011-02-14 09:15 51°32.586 2°55.536 1.7 264 6.9 100340 52
2011-02-14 09:16 51°32.639 2°55.542 2.3 262 6.9 100350 51
2011-02-14 09:17 51°32.679 2°55.547 4 260 6.9 100340 51
2011-02-14 09:18 51°32.71 2°55.553 4.7 258 6.9 100350 51
2011-02-14 09:19 51°32.736 2°55.562 5.5 257 6.9 100350 51
2011-02-14 09:20 51°32.764 2°55.553 5.2 26 7 100350 51
2011-02-14 09:21 51°32.785 2°55.514 4.5 28 6.9 100340 53
2011-02-14 09:22 51°32.805 2°55.39 6.2 19 6.9 100330 52
2011-02-14 09:23 51°32.884 2°55.246 5.4 27 6.9 100340 52
2011-02-14 09:24 51°33.012 2°55.119 6.1 19 6.9 100340 51
2011-02-14 09:25 51°33.171 2°55.153 -999 26 7 100350 52
2011-02-14 09:26 51°33.251 2°55.385 4.5 9 7 100350 53
2011-02-14 09:27 51°33.218 2°55.624 6.7 360 6.9 100340 52
2011-02-14 09:28 51°33.142 2°55.819 5.8 360 6.9 100340 51
2011-02-14 09:29 51°33.085 2°55.994 5.7 4 6.8 100340 51
2011-02-14 09:30 51°33.043 2°56.129 4.5 3 6.8 100350 51
2011-02-14 09:31 51°33.015 2°56.208 3.2 3 6.8 100350 52
2011-02-14 09:32 51°32.997 2°56.261 4.4 1 6.7 100350 51
2011-02-14 09:33 51°32.987 2°56.306 3.8 3 6.7 100340 51
2011-02-14 09:34 51°32.985 2°56.346 3.2 5 6.7 100350 51
2011-02-14 09:35 51°32.987 2°56.381 3.4 3 6.7 100350 52
2011-02-14 09:36 51°32.992 2°56.411 3.1 2 6.7 100350 51
2011-02-14 09:37 51°33.001 2°56.442 4 3 6.7 100350 51
2011-02-14 09:38 51°33.011 2°56.472 3 4 6.7 100350 52
2011-02-14 09:39 51°33.023 2°56.502 4.4 1 6.7 100350 53
2011-02-14 09:40 51°33.034 2°56.529 1.8 -999 6.7 100340 52
2011-02-14 09:41 51°33.047 2°56.557 1.1 358 6.8 100350 51
2011-02-14 09:42 51°33.06 2°56.584 3.2 2 6.8 100350 53
2011-02-14 09:43 51°33.073 2°56.612 3.7 9 6.9 100350 51
2011-02-14 09:44 51°33.087 2°56.642 4.3 21 6.9 100350 53
2011-02-14 09:45 51°33.101 2°56.672 1.4 17 6.9 100350 52
2011-02-14 09:46 51°33.115 2°56.703 2.1 14 6.9 100360 51
2011-02-14 09:47 51°33.128 2°56.733 3.1 11 7 100360 52
2011-02-14 09:48 51°33.141 2°56.765 2.4 16 7 100360 53
2011-02-14 09:49 51°33.153 2°56.795 3.7 8 7 100360 51
2011-02-14 09:50 51°33.165 2°56.826 3.3 13 7 100360 50
2011-02-14 09:51 51°33.178 2°56.855 3 2 7 100360 50
2011-02-14 09:52 51°33.191 2°56.884 3.5 3 6.9 100360 51
2011-02-14 09:53 51°33.204 2°56.912 -999 4 6.9 100350 51
2011-02-14 09:54 51°33.217 2°56.939 -999 357 6.9 100370 51
2011-02-14 09:55 51°33.231 2°56.967 -999 3 6.9 100370 51
2011-02-14 09:56 51°33.243 2°56.993 -999 359 6.8 100370 51
2011-02-14 09:57 51°33.238 2°57.015 0.1 337 6.8 100370 51
2011-02-14 09:58 51°33.227 2°57.007 4.4 329 6.8 100380 51
2011-02-14 09:59 51°33.213 2°56.975 5.2 328 6.8 100370 51
2011-02-14 10:00 51°33.193 2°56.934 2.5 326 6.9 100370 52
2011-02-14 10:01 51°33.17 2°56.891 3.2 328 6.9 100370 51
2011-02-14 10:02 51°33.149 2°56.843 3.3 331 6.9 100380 51
2011-02-14 10:03 51°33.128 2°56.794 3 319 6.9 100380 52
2011-02-14 10:04 51°33.137 2°56.742 2.5 21 6.9 100380 51
2011-02-14 10:05 51°33.161 2°56.716 3.7 20 6.9 100380 50
2011-02-14 10:06 51°33.183 2°56.704 3.9 27 6.9 100380 50
2011-02-14 10:07 51°33.207 2°56.687 3.1 29 6.9 100380 50
2011-02-14 10:08 51°33.233 2°56.654 2.3 18 7 100380 51
2011-02-14 10:09 51°33.283 2°56.634 2.7 23 7 100390 50
2011-02-14 10:10 51°33.34 2°56.686 0.1 28 6.9 100400 50
2011-02-14 10:11 51°33.358 2°56.777 4 14 7 100390 50
2011-02-14 10:12 51°33.336 2°56.844 6 352 6.9 100390 51
2011-02-14 10:13 51°33.281 2°56.877 5.6 345 6.9 100390 49
2011-02-14 10:14 51°33.214 2°56.902 3.9 348 6.8 100390 50
2011-02-14 10:15 51°33.141 2°56.925 3.7 345 6.8 100390 50
2011-02-14 10:16 51°33.067 2°56.954 6.1 347 6.8 100390 49
2011-02-14 10:17 51°32.995 2°56.981 5.3 351 6.8 100390 49
2011-02-14 10:18 51°32.96 2°57.039 4.3 7 6.7 100390 49
2011-02-14 10:19 51°32.946 2°57.098 4 20 6.7 100400 49
2011-02-14 10:20 51°32.943 2°57.151 3.5 21 6.7 100390 50
2011-02-14 10:21 51°32.944 2°57.194 4.1 18 6.7 100400 50
2011-02-14 10:22 51°32.947 2°57.231 4.1 14 6.7 100400 50
2011-02-14 10:23 51°32.946 2°57.29 3.1 34 6.7 100400 50
2011-02-14 10:24 51°32.978 2°57.369 0.1 20 6.7 100400 50
2011-02-14 10:25 51°33.037 2°57.39 4.5 250 6.7 100410 51
2011-02-14 10:26 51°33.08 2°57.342 4.5 26 6.8 100400 52
2011-02-14 10:27 51°33.079 2°57.207 7.6 325 6.8 100400 50
2011-02-14 10:28 51°33.06 2°56.965 9.3 328 6.8 100390 49
2011-02-14 10:29 51°33.041 2°56.714 7.4 322 6.8 100390 50
2011-02-14 10:30 51°33.031 2°56.449 9.5 324 6.9 100390 51
2011-02-14 10:31 51°33.042 2°56.186 8 319 6.9 100390 49
2011-02-14 10:32 51°33.057 2°56.025 5.8 18 7 100400 50
2011-02-14 10:33 51°33.07 2°55.944 4.5 316 7 100410 50
2011-02-14 10:34 51°33.083 2°55.9 4.8 18 7 100410 48
2011-02-14 10:35 51°33.1 2°55.873 3.9 20 7 100410 48
2011-02-14 10:36 51°33.115 2°55.86 3.5 26 7.1 100410 50
2011-02-14 10:37 51°33.13 2°55.857 3.5 27 7.1 100420 48
2011-02-14 10:38 51°33.145 2°55.86 2.9 316 7.1 100420 49
2011-02-14 10:39 51°33.162 2°55.869 1.3 27 7.1 100420 49
2011-02-14 10:40 51°33.179 2°55.878 1.4 20 7.1 100420 49
2011-02-14 10:41 51°33.199 2°55.858 3.9 25 7.1 100420 50
2011-02-14 10:42 51°33.217 2°55.837 1.6 27 7.1 100420 49
2011-02-14 10:43 51°33.234 2°55.826 1.4 22 7.1 100420 50
2011-02-14 10:44 51°33.249 2°55.822 0.2 315 7.2 100420 48
2011-02-14 10:45 51°33.265 2°55.823 1 26 7.2 100420 48
2011-02-14 10:46 51°33.28 2°55.827 4.3 20 7.2 100420 47
2011-02-14 10:47 51°33.297 2°55.836 4.2 26 7.3 100420 47
2011-02-14 10:48 51°33.315 2°55.848 3.5 26 7.3 100420 46
2011-02-14 10:49 51°33.334 2°55.862 4.6 256 7.3 100420 46
2011-02-14 10:50 51°33.353 2°55.877 1.1 263 7.3 100420 47
2011-02-14 10:51 51°33.372 2°55.896 4.1 263 7.3 100420 46
2011-02-14 10:52 51°33.392 2°55.916 3.9 267 7.3 100420 46
2011-02-14 10:53 51°33.413 2°55.937 1.3 262 7.3 100430 47
2011-02-14 10:54 51°33.433 2°55.953 1.3 263 7.3 100420 48
2011-02-14 10:55 51°33.465 2°55.938 4.3 21 7.2 100420 47
2011-02-14 10:56 51°33.473 2°55.89 4.7 330 7.2 100410 49
2011-02-14 10:57 51°33.448 2°55.839 6.1 332 7.2 100420 49
2011-02-14 10:58 51°33.407 2°55.778 5.9 333 7.1 100420 47
2011-02-14 10:59 51°33.36 2°55.72 6 332 7.1 100420 49
2011-02-14 11:00 51°33.323 2°55.678 4.9 335 7 100420 49
2011-02-14 11:01 51°33.299 2°55.658 4.4 337 7 100420 48
2011-02-14 11:02 51°33.286 2°55.656 4 343 7 100420 48
2011-02-14 11:03 51°33.283 2°55.665 2.7 347 7 100420 49
2011-02-14 11:04 51°33.289 2°55.681 2.9 348 7 100420 49
2011-02-14 11:05 51°33.305 2°55.701 2.9 351 7 100420 47
2011-02-14 11:06 51°33.321 2°55.722 4.1 3 7 100420 49
2011-02-14 11:07 51°33.337 2°55.742 4.1 10 7 100420 47
2011-02-14 11:08 51°33.353 2°55.762 1.9 17 6.9 100420 50
2011-02-14 11:09 51°33.369 2°55.782 3 22 6.9 100420 48
2011-02-14 11:10 51°33.384 2°55.803 2.9 25 6.9 100420 49
2011-02-14 11:11 51°33.397 2°55.825 2.6 28 6.9 100430 49
2011-02-14 11:12 51°33.411 2°55.851 3.4 20 6.9 100430 49
2011-02-14 11:13 51°33.41 2°55.91 4 19 6.9 100420 50
2011-02-14 11:14 51°33.393 2°55.989 4 2 6.9 100420 49
2011-02-14 11:15 51°33.375 2°56.064 3.8 7 6.9 100430 49
2011-02-14 11:16 51°33.365 2°56.117 1.7 6 6.9 100430 51
2011-02-14 11:17 51°33.36 2°56.158 2.4 5 6.9 100430 49
2011-02-14 11:18 51°33.36 2°56.192 1.8 6 6.8 100420 49
2011-02-14 11:19 51°33.362 2°56.22 3.3 5 6.8 100430 51
2011-02-14 11:20 51°33.368 2°56.245 3.2 5 6.8 100420 50
2011-02-14 11:21 51°33.375 2°56.267 2.5 5 6.8 100410 51
2011-02-14 11:22 51°33.384 2°56.288 1.5 5 6.7 100410 52
2011-02-14 11:23 51°33.393 2°56.308 2.4 2 6.8 100410 51
2011-02-14 11:24 51°33.405 2°56.327 1.6 6 6.8 100410 50
2011-02-14 11:25 51°33.417 2°56.348 1.2 6 6.8 100410 51
2011-02-14 11:26 51°33.429 2°56.366 1.3 6 6.8 100410 49
2011-02-14 11:27 51°33.441 2°56.384 1.6 7 6.8 100410 50
2011-02-14 11:28 51°33.453 2°56.401 4.3 7 6.8 100410 49
2011-02-14 11:29 51°33.466 2°56.419 0.7 9 6.9 100410 50
2011-02-14 11:30 51°33.478 2°56.436 -999 8 6.9 100410 50
2011-02-14 11:31 51°33.491 2°56.453 -999 4 7 100410 50
2011-02-14 11:32 51°33.504 2°56.47 -999 360 6.9 100410 50
2011-02-14 11:33 51°33.517 2°56.488 0.1 4 7 100410 50
2011-02-14 11:34 51°33.53 2°56.504 -999 357 7 100410 50
2011-02-14 11:35 51°33.542 2°56.521 -999 2 6.9 100410 50
2011-02-14 11:36 51°33.555 2°56.538 0.8 3 6.9 100410 51
2011-02-14 11:37 51°33.568 2°56.555 1.2 7 6.9 100410 50
2011-02-14 11:38 51°33.58 2°56.572 3.7 10 6.9 100410 50
2011-02-14 11:39 51°33.593 2°56.589 0.1 9 6.9 100410 51
2011-02-14 11:40 51°33.603 2°56.61 1.8 3 7 100410 51
2011-02-14 11:41 51°33.593 2°56.633 4.4 348 7 100410 51
2011-02-14 11:42 51°33.57 2°56.621 4.8 324 7 100410 50
2011-02-14 11:43 51°33.554 2°56.565 5.4 323 7 100410 50
2011-02-14 11:44 51°33.53 2°56.499 5.9 325 7.1 100410 51
2011-02-14 11:45 51°33.492 2°56.45 7.2 336 7.2 100410 51
2011-02-14 11:46 51°33.446 2°56.425 5.3 337 7.3 100400 49
2011-02-14 11:47 51°33.396 2°56.403 5.9 344 7.3 100400 51
2011-02-14 11:48 51°33.361 2°56.382 5 330 7.3 100410 51
2011-02-14 11:49 51°33.339 2°56.362 4.3 327 7.3 100410 49
2011-02-14 11:50 51°33.329 2°56.347 1.9 327 7.3 100410 51
2011-02-14 11:51 51°33.325 2°56.336 1.9 321 7.3 100410 49
2011-02-14 11:52 51°33.327 2°56.328 3 316 7.4 100410 51
2011-02-14 11:53 51°33.333 2°56.324 2.9 22 7.4 100410 51
2011-02-14 11:54 51°33.343 2°56.319 1.4 23 7.4 100410 51
2011-02-14 11:55 51°33.342 2°56.296 3.3 330 7.4 100410 51
2011-02-14 11:56 51°33.312 2°56.302 4.2 355 7.3 100400 51
2011-02-14 11:57 51°33.291 2°56.372 5.1 14 7.2 100410 51
2011-02-14 11:58 51°33.287 2°56.454 1.4 15 7 100410 49
2011-02-14 11:59 51°33.288 2°56.532 2.5 18 7 100410 51
2011-02-14 12:00 51°33.291 2°56.603 4.6 19 7 100400 50
2011-02-14 12:01 51°33.297 2°56.661 2.3 23 7 100410 52
2011-02-14 12:02 51°33.303 2°56.708 4 17 7 100410 50
2011-02-14 12:03 51°33.309 2°56.744 1.7 14 7 100410 52
2011-02-14 12:04 51°33.316 2°56.773 3.1 14 7 100410 52
2011-02-14 12:05 51°33.324 2°56.796 3.7 11 7 100410 52
2011-02-14 12:06 51°33.332 2°56.816 4.8 8 7 100410 52
2011-02-14 12:07 51°33.34 2°56.833 4.2 9 7 100410 52
2011-02-14 12:08 51°33.35 2°56.849 3.8 7 7 100400 50
2011-02-14 12:09 51°33.361 2°56.865 5.3 9 6.9 100410 51
2011-02-14 12:10 51°33.371 2°56.878 4 6 6.9 100410 51
2011-02-14 12:11 51°33.381 2°56.891 4.2 1 6.9 100400 51
2011-02-14 12:12 51°33.392 2°56.903 3.2 2 6.9 100400 52
2011-02-14 12:13 51°33.404 2°56.914 2.7 3 7 100400 52
2011-02-14 12:14 51°33.417 2°56.925 3.3 6 7 100400 51
2011-02-14 12:15 51°33.43 2°56.936 4.7 6 7 100410 53
2011-02-14 12:16 51°33.444 2°56.946 5.3 9 7 100410 50
2011-02-14 12:17 51°33.458 2°56.955 5.5 11 7 100400 51
2011-02-14 12:18 51°33.463 2°56.982 5.6 10 7 100400 52
2011-02-14 12:19 51°33.451 2°57.03 4.9 357 7 100400 52
2011-02-14 12:20 51°33.408 2°57.039 7.2 328 7 100400 52
2011-02-14 12:21 51°33.367 2°56.943 6.3 317 7 100400 51
2011-02-14 12:22 51°33.317 2°56.802 8.4 320 7.1 100390 52
2011-02-14 12:23 51°33.259 2°56.647 9.2 322 7.1 100390 52
2011-02-14 12:24 51°33.191 2°56.503 6.4 320 7.2 100390 51
2011-02-14 12:25 51°33.146 2°56.376 8.5 24 7.2 100390 51
2011-02-14 12:26 51°33.119 2°56.272 6.5 25 7.2 100390 52
2011-02-14 12:27 51°33.108 2°56.214 4.3 25 7.3 100400 51
2011-02-14 12:28 51°33.117 2°56.178 5.2 20 7.3 100410 50
2011-02-14 12:29 51°33.131 2°56.16 5.2 254 7.3 100410 51
2011-02-14 12:30 51°33.145 2°56.157 5.7 256 7.4 100410 52
2011-02-14 12:31 51°33.159 2°56.157 4.5 259 7.4 100420 50
2011-02-14 12:32 51°33.174 2°56.159 3.7 260 7.4 100420 52
2011-02-14 12:33 51°33.189 2°56.163 3.2 262 7.4 100420 52
2011-02-14 12:34 51°33.204 2°56.168 3.3 263 7.4 100420 51
2011-02-14 12:35 51°33.218 2°56.173 3.1 263 7.5 100420 51
2011-02-14 12:36 51°33.232 2°56.18 1.9 264 7.5 100420 50
2011-02-14 12:37 51°33.246 2°56.188 1.9 265 7.5 100420 50
2011-02-14 12:38 51°33.259 2°56.198 3.1 269 7.4 100420 51
2011-02-14 12:39 51°33.272 2°56.207 1.4 267 7.4 100420 50
2011-02-14 12:40 51°33.284 2°56.217 4.4 270 7.3 100420 51
2011-02-14 12:41 51°33.296 2°56.225 1.3 265 7.3 100420 51
2011-02-14 12:42 51°33.314 2°56.217 5.4 250 7.3 100420 50
2011-02-14 12:43 51°33.306 2°56.142 5.1 330 7.3 100410 52
2011-02-14 12:44 51°33.234 2°56.113 6.9 335 7.4 100420 52
2011-02-14 12:45 51°33.153 2°56.099 5.4 335 7.4 100410 52
2011-02-14 12:46 51°33.105 2°56.054 6.1 319 7.4 100410 50
2011-02-14 12:47 51°33.101 2°56.006 5 22 7.4 100410 51
2011-02-14 12:48 51°33.109 2°56.012 7.2 255 7.5 100420 50
2011-02-14 12:49 51°33.117 2°56.023 2.8 266 7.5 100420 50
2011-02-14 12:50 51°33.126 2°56.033 3.6 266 7.5 100420 51
2011-02-14 12:51 51°33.136 2°56.043 3.5 269 7.5 100420 50
2011-02-14 12:52 51°33.147 2°56.054 3.9 263 7.5 100420 52
2011-02-14 12:53 51°33.159 2°56.064 3.1 27 7.5 100430 51
2011-02-14 12:54 51°33.17 2°56.074 5 270 7.4 100430 50
2011-02-14 12:55 51°33.183 2°56.085 4.2 21 7.4 100430 51
2011-02-14 12:56 51°33.194 2°56.094 5.1 21 7.4 100430 52
2011-02-14 12:57 51°33.207 2°56.102 4.8 270 7.3 100420 50
2011-02-14 12:58 51°33.219 2°56.109 3.8 270 7.3 100430 52
2011-02-14 12:59 51°33.232 2°56.116 3.1 267 7.3 100430 50
2011-02-14 13:00 51°33.244 2°56.122 3.1 268 7.2 100420 52
2011-02-14 13:01 51°33.256 2°56.129 1.6 265 7.2 100430 50
2011-02-14 13:02 51°33.268 2°56.135 1.9 270 7.2 100430 50
2011-02-14 13:03 51°33.28 2°56.14 2.4 264 7.2 100430 52
2011-02-14 13:04 51°33.293 2°56.145 3.6 265 7.3 100430 51
2011-02-14 13:05 51°33.306 2°56.149 3 264 7.3 100430 52
2011-02-14 13:06 51°33.319 2°56.155 4.8 261 7.3 100430 52
2011-02-14 13:07 51°33.332 2°56.16 4 261 7.3 100430 50
2011-02-14 13:08 51°33.344 2°56.166 5.1 262 7.4 100430 50
2011-02-14 13:09 51°33.357 2°56.174 4.3 264 7.4 100440 52
2011-02-14 13:10 51°33.369 2°56.182 4.4 266 7.4 100440 51
2011-02-14 13:11 51°33.382 2°56.191 4.7 266 7.5 100440 51
2011-02-14 13:12 51°33.394 2°56.199 4 268 7.4 100440 51
2011-02-14 13:13 51°33.406 2°56.208 4.3 265 7.5 100440 50
2011-02-14 13:14 51°33.418 2°56.217 4.3 269 7.4 100440 51
2011-02-14 13:15 51°33.431 2°56.225 5.1 270 7.4 100440 51
2011-02-14 13:16 51°33.443 2°56.231 4.3 263 7.4 100440 49
2011-02-14 13:17 51°33.456 2°56.237 3.9 264 7.4 100430 50
2011-02-14 13:18 51°33.468 2°56.244 3.3 263 7.4 100430 49
2011-02-14 13:19 51°33.48 2°56.251 5.5 267 7.3 100430 51
2011-02-14 13:20 51°33.491 2°56.258 2.9 266 7.4 100430 51
2011-02-14 13:21 51°33.503 2°56.265 4.8 264 7.4 100440 51
2011-02-14 13:22 51°33.517 2°56.268 6.6 260 7.4 100430 51
2011-02-14 13:23 51°33.531 2°56.22 4.8 25 7.4 100420 51
2011-02-14 13:24 51°33.495 2°56.168 7.9 341 7.4 100430 50
2011-02-14 13:25 51°33.419 2°56.162 6.6 345 7.4 100420 51
2011-02-14 13:26 51°33.33 2°56.178 9.2 342 7.3 100410 51
2011-02-14 13:26 51°33.299 2°56.176 9.8 340 7.3 100420 51
2011-02-14 13:27 51°33.207 2°56.147 7.1 337 7.3 100420 50
2011-02-14 13:28 51°33.117 2°56.123 6.4 340 7.4 100420 51
2011-02-14 13:29 51°33.056 2°56.089 6.4 327 7.3 100420 51
2011-02-14 13:30 51°33.035 2°56.049 6.1 316 7.4 100410 50
2011-02-14 13:31 51°33.041 2°56.051 4.3 248 7.3 100420 52
2011-02-14 13:32 51°33.048 2°56.059 4.6 254 7.4 100420 49
2011-02-14 13:33 51°33.054 2°56.067 6.1 258 7.4 100420 51
2011-02-14 13:34 51°33.061 2°56.075 5.2 263 7.4 100430 51
2011-02-14 13:35 51°33.069 2°56.082 6.1 260 7.4 100420 50
2011-02-14 13:36 51°33.076 2°56.088 3.9 266 7.4 100430 52
2011-02-14 13:37 51°33.084 2°56.095 2.6 265 7.4 100430 51
2011-02-14 13:38 51°33.091 2°56.102 3.5 266 7.4 100430 51
2011-02-14 13:39 51°33.098 2°56.108 5.5 269 7.3 100420 50
2011-02-14 13:40 51°33.105 2°56.115 3.9 270 7.3 100420 51
2011-02-14 13:41 51°33.112 2°56.122 3.6 270 7.3 100420 50
2011-02-14 13:42 51°33.119 2°56.128 3.4 270 7.4 100420 50
2011-02-14 13:43 51°33.127 2°56.134 2.2 265 7.4 100420 51
2011-02-14 13:44 51°33.134 2°56.14 3.5 265 7.4 100420 50
2011-02-14 13:45 51°33.142 2°56.148 2.4 264 7.4 100420 51
2011-02-14 13:46 51°33.149 2°56.152 4.9 257 7.4 100420 50
2011-02-14 13:47 51°33.158 2°56.155 1.7 263 7.4 100420 49
2011-02-14 13:48 51°33.195 2°56.109 5.6 19 7.5 100410 49
2011-02-14 13:49 51°33.236 2°56.022 6 249 7.5 100400 51
2011-02-14 13:50 51°33.288 2°55.989 2.6 25 7.5 100410 51
2011-02-14 13:51 51°33.337 2°56.024 0.1 26 7.4 100410 50
2011-02-14 13:52 51°33.369 2°56.067 3.1 19 7.5 100410 51
2011-02-14 13:53 51°33.386 2°56.109 4.4 43 7.4 100410 49
2011-02-14 13:54 51°33.396 2°56.145 4.4 39 7.3 100410 49
2011-02-14 13:55 51°33.403 2°56.176 3.9 31 7.3 100400 49
2011-02-14 13:56 51°33.406 2°56.201 3.9 32 7.2 100400 48
2011-02-14 13:57 51°33.407 2°56.22 4.3 29 7.2 100400 49
2011-02-14 13:58 51°33.407 2°56.235 3.9 23 7.2 100400 49
2011-02-14 13:59 51°33.408 2°56.247 4.5 22 7.2 100400 51
2011-02-14 14:00 51°33.409 2°56.257 4.2 24 7.2 100400 50
2011-02-14 14:01 51°33.41 2°56.266 4.4 17 7.1 100400 49
2011-02-14 14:02 51°33.411 2°56.274 5.1 15 7.1 100400 50
2011-02-14 14:03 51°33.411 2°56.281 -999 15 7.1 100400 50
2011-02-14 14:04 51°33.41 2°56.29 1.3 15 7.2 100400 50
2011-02-14 14:05 51°33.375 2°56.289 5.9 340 7.2 100400 51
2011-02-14 14:06 51°33.353 2°56.211 6.4 24 7.2 100400 49
2011-02-14 14:07 51°33.364 2°56.041 10 324 7.2 100390 50
2011-02-14 14:08 51°33.32 2°55.781 8.8 325 7.3 100390 50
2011-02-14 14:09 51°33.267 2°55.453 9.2 325 7.3 100380 49
2011-02-14 14:10 51°33.163 2°55.146 13.4 330 7.3 100380 49
2011-02-14 14:11 51°33.026 2°54.875 12.5 333 7.3 100380 49
2011-02-14 14:12 51°32.826 2°54.752 12.6 339 7.3 100370 49
2011-02-14 14:13 51°32.618 2°54.658 12.2 339 7.3 100370 50
2011-02-14 14:14 51°32.401 2°54.63 9.1 342 7.3 100370 49
2011-02-14 14:15 51°32.186 2°54.595 8.5 340 7.2 100370 49
2011-02-14 14:16 51°31.971 2°54.56 12.2 341 7.2 100380 49
2011-02-14 14:17 51°31.757 2°54.517 8.6 341 7.2 100380 50
2011-02-14 14:18 51°31.541 2°54.478 12.6 341 7.2 100380 49
2011-02-14 14:19 51°31.328 2°54.438 9.5 340 7.2 100380 50
2011-02-14 14:20 51°31.113 2°54.396 9 339 7.2 100380 49
2011-02-14 14:21 51°30.9 2°54.351 11.7 339 7.2 100380 50
2011-02-14 14:22 51°30.684 2°54.303 10.5 339 7.2 100380 50
2011-02-14 14:23 51°30.467 2°54.259 11.3 339 7.2 100380 50
2011-02-14 14:24 51°30.249 2°54.219 8.2 339 7.2 100380 49
2011-02-14 14:25 51°30.033 2°54.172 11.4 339 7.2 100380 51
2011-02-14 14:26 51°29.815 2°54.126 8.4 339 7.1 100380 51
2011-02-14 14:27 51°29.597 2°54.082 11.7 339 7.1 100380 50
2011-02-14 14:28 51°29.379 2°54.037 8.3 338 7.1 100390 50
2011-02-14 14:29 51°29.161 2°53.992 9.3 338 7.1 100390 50
2011-02-14 14:30 51°28.943 2°53.948 11.4 339 7.1 100390 50
2011-02-14 14:31 51°28.725 2°53.902 7.2 337 7.1 100390 50
2011-02-14 14:32 51°28.508 2°53.856 10.5 337 7.1 100390 51
2011-02-14 14:33 51°28.289 2°53.814 7.5 337 7.1 100390 50
2011-02-14 14:34 51°28.07 2°53.781 8.8 338 7.1 100390 51
2011-02-14 14:35 51°27.851 2°53.759 11.1 337 7.1 100390 51
2011-02-14 14:36 51°27.63 2°53.742 7.3 336 7.1 100390 51
2011-02-14 14:37 51°27.408 2°53.724 9.8 336 7 100390 51
2011-02-14 14:38 51°27.187 2°53.699 7.7 337 7 100390 52
2011-02-14 14:39 51°26.965 2°53.668 7.2 337 7 100390 50
2011-02-14 14:40 51°26.745 2°53.642 10.6 338 7 100390 52
2011-02-14 14:41 51°26.525 2°53.608 7.3 337 7.1 100390 51
2011-02-14 14:42 51°26.305 2°53.575 9.7 336 7 100400 51
2011-02-14 14:43 51°26.083 2°53.544 7.4 337 7.1 100400 50
2011-02-14 14:44 51°25.862 2°53.514 11.1 337 7 100400 51
2011-02-14 14:45 51°25.641 2°53.483 8.1 336 7 100390 51
2011-02-14 14:46 51°25.42 2°53.453 10.9 336 7 100390 51
2011-02-14 14:47 51°25.199 2°53.419 10.4 335 7 100390 51
2011-02-14 14:48 51°24.978 2°53.389 9.9 336 7 100390 52
2011-02-14 14:49 51°24.756 2°53.354 9.3 337 7 100400 52
2011-02-14 14:50 51°24.535 2°53.324 7.9 336 7.1 100390 51
2011-02-14 14:51 51°24.314 2°53.29 10.2 335 7.1 100390 50
2011-02-14 14:52 51°24.092 2°53.256 7.1 335 7.1 100400 51
2011-02-14 14:53 51°23.869 2°53.223 9.7 336 7.1 100400 51
2011-02-14 14:54 51°23.646 2°53.19 7.2 335 7.1 100400 50
2011-02-14 14:55 51°23.423 2°53.156 7.8 336 7.1 100400 51
2011-02-14 14:56 51°23.2 2°53.122 7.2 337 7.1 100400 51
2011-02-14 14:57 51°22.977 2°53.087 8.1 339 7.1 100400 51
2011-02-14 14:58 51°22.756 2°53.055 8.7 339 7.1 100400 51
2011-02-14 14:59 51°22.535 2°53.019 10.2 338 7.1 100400 51
2011-02-14 15:00 51°22.314 2°52.979 10.4 338 7.2 100400 50
2011-02-14 15:01 51°22.095 2°52.903 10 335 7.2 100400 49
2011-02-14 15:02 51°21.877 2°52.817 10.7 335 7.2 100410 49
2011-02-14 15:03 51°21.659 2°52.731 9.9 338 7.2 100410 49
2011-02-14 15:04 51°21.438 2°52.695 9.1 338 7.2 100400 50
2011-02-14 15:05 51°21.217 2°52.663 7.6 337 7.2 100410 50
2011-02-14 15:06 51°20.996 2°52.629 9.8 337 7.2 100410 51
2011-02-14 15:07 51°20.775 2°52.599 10.2 337 7.1 100410 50
2011-02-14 15:08 51°20.553 2°52.565 10.5 338 7.1 100410 51
2011-02-14 15:09 51°20.331 2°52.513 9.3 337 7.1 100410 51
2011-02-14 15:10 51°20.107 2°52.465 11 337 7.1 100410 51
2011-02-14 15:11 51°19.884 2°52.416 8.5 337 7.1 100410 51
2011-02-14 15:12 51°19.66 2°52.377 11.8 337 7.1 100400 50
2011-02-14 15:13 51°19.437 2°52.347 7.2 336 7.1 100400 51
2011-02-14 15:14 51°19.212 2°52.317 9.1 335 7.1 100410 50
2011-02-14 15:15 51°18.989 2°52.296 9.1 338 7.2 100410 49
2011-02-14 15:16 51°18.765 2°52.278 9.2 337 7.2 100410 50
2011-02-14 15:17 51°18.542 2°52.267 10.6 336 7.2 100410 49
2011-02-14 15:18 51°18.318 2°52.265 8 338 7.2 100410 48
2011-02-14 15:19 51°18.094 2°52.26 8.6 339 7.3 100400 48
2011-02-14 15:20 51°17.87 2°52.254 12.9 340 7.3 100390 47
2011-02-14 15:21 51°17.646 2°52.264 10.8 342 7.5 100400 47
2011-02-14 15:22 51°17.436 2°52.367 9 346 7.6 100390 46
2011-02-14 15:23 51°17.229 2°52.488 12.1 344 7.6 100400 45
2011-02-14 15:24 51°17.023 2°52.606 9 347 7.7 100390 44
2011-02-14 15:25 51°16.818 2°52.731 11.7 346 7.8 100400 44
2011-02-14 15:26 51°16.613 2°52.863 12.2 345 7.8 100400 44
2011-02-14 15:27 51°16.405 2°52.983 11.2 346 7.8 100400 44
2011-02-14 15:28 51°16.198 2°53.102 8.2 347 7.8 100400 44
2011-02-14 15:29 51°15.997 2°53.24 10.2 348 7.8 100400 44
2011-02-14 15:30 51°15.808 2°53.41 7.9 346 7.8 100400 43
2011-02-14 15:31 51°15.63 2°53.602 6.8 346 7.8 100410 44
2011-02-14 15:32 51°15.456 2°53.803 8.6 348 7.8 100410 44
2011-02-14 15:33 51°15.288 2°54.016 8.7 346 7.8 100410 46
2011-02-14 15:34 51°15.12 2°54.231 9.6 346 7.8 100400 45
2011-02-14 15:35 51°14.955 2°54.448 13.2 347 7.9 100400 46
2011-02-14 15:36 51°14.789 2°54.668 10.4 345 8.1 100400 42
2011-02-14 15:37 51°14.626 2°54.877 10.1 344 8.3 100390 43
2011-02-14 15:38 51°14.462 2°55.077 7.9 351 8.4 100390 42
2011-02-14 15:39 51°14.304 2°55.256 9.7 354 8.4 100390 39
2011-02-14 15:40 51°14.176 2°55.377 5.3 340 8.6 100400 37
2011-02-14 15:41 51°14.055 2°55.468 4.4 338 8.7 100400 38
2011-02-14 15:42 51°13.944 2°55.548 5.1 342 8.7 100400 38
2011-02-14 15:43 51°13.84 2°55.623 4.1 338 8.7 100400 38
2011-02-14 15:44 51°13.754 2°55.726 3.5 351 8.7 100410 38
2011-02-14 15:45 51°13.7 2°55.83 -999 360 8.7 100410 39
2011-02-14 15:46 51°13.67 2°55.922 -999 357 8.7 100410 39
2011-02-14 15:47 51°13.662 2°55.959 -999 11 8.6 100420 39